W2GLD-13 Weather Reports


time (UTC)temp
C
wind
direction
speed
KPH
gust
KPH
rain 1hr
cm
rain 24hr
cm
rain mn
cm
humidity
%
barometer
mb
20260509043006 8 0.0 0.0 0.00 0.00 0.00 59 1005.7
20260509041505 8 0.0 0.0 0.00 0.00 0.00 59 1005.7
20260509040020 8 0.0 0.0 0.00 0.00 0.00 59 1005.7
20260509040005 10 0.0 0.0 0.00 0.00 0.00 52 1006.0
20260509034505 10 0.0 0.0 0.00 0.00 0.00 52 1006.0
20260509033005 10 0.0 0.0 0.00 0.00 0.00 52 1006.0
20260509031505 10 0.0 0.0 0.00 0.00 0.00 52 1006.0
20260509030039 10 0.0 0.0 0.00 0.00 0.00 52 1005.9
20260509030005 11 0.0 0.0 0.00 0.00 0.00 59 1005.9
20260509024505 11 0.0 0.0 0.00 0.00 0.00 59 1005.9
20260509023006 11 0.0 0.0 0.00 0.00 0.00 59 1005.9
20260509021506 11 0.0 0.0 0.00 0.00 0.00 59 1005.9
20260509020019 11 0.0 0.0 0.00 0.00 0.00 59 1005.8
20260509020006 15 0.0 3.2 0.00 0.00 0.00 48 1005.3
20260509014505 15 0.0 3.2 0.00 0.00 0.00 48 1005.3
20260509013005 15 0.0 3.2 0.00 0.00 0.00 48 1005.3
20260509011505 15 0.0 3.2 0.00 0.00 0.00 48 1005.3
20260509010019 15 0.0 3.2 0.00 0.00 0.00 48 1005.3
20260509010005 17 360 0.0 9.7 0.00 0.00 0.00 34 1004.8
20260509004505 17 360 0.0 9.7 0.00 0.00 0.00 34 1004.8
20260509003006 17 360 0.0 9.7 0.00 0.00 0.00 34 1004.8
20260509001506 17 360 0.0 9.7 0.00 0.00 0.00 34 1004.8
20260509000019 17 0 1.6 9.7 0.00 0.00 0.00 34 1004.6
20260509000006 17 360 0.0 12.9 0.00 0.00 0.00 35 1004.8
20260508234506 17 360 0.0 12.9 0.00 0.00 0.00 35 1004.8
20260508233006 17 360 0.0 12.9 0.00 0.00 0.00 35 1004.8
20260508231505 17 360 0.0 12.9 0.00 0.00 0.00 35 1004.8
20260508230018 17 0 3.2 12.9 0.00 0.00 0.00 35 1004.7
20260508230005 18 360 0.0 14.5 0.00 0.00 0.00 34 1005.2
20260508224505 18 360 0.0 14.5 0.00 0.00 0.00 34 1005.2
20260508223005 18 360 0.0 14.5 0.00 0.00 0.00 34 1005.2
20260508221505 18 360 0.0 14.5 0.00 0.00 0.00 34 1005.2
20260508220018 18 0 3.2 14.5 0.00 0.00 0.00 34 1005.1
20260508220005 17 360 0.0 16.1 0.00 0.00 0.00 35 1005.5
20260508214506 17 360 0.0 16.1 0.00 0.00 0.00 35 1005.5
20260508213006 17 360 0.0 16.1 0.00 0.00 0.00 35 1005.5
20260508211505 17 360 0.0 16.1 0.00 0.00 0.00 35 1005.5
20260508210020 17 0 3.2 16.1 0.00 0.00 0.00 35 1005.5
20260508210005 17 360 0.0 14.5 0.00 0.00 0.00 33 1006.5
20260508204505 17 360 0.0 14.5 0.00 0.00 0.00 33 1006.5
20260508203005 17 360 0.0 14.5 0.00 0.00 0.00 33 1006.5
20260508201505 17 360 0.0 14.5 0.00 0.00 0.00 33 1006.5
20260508200020 17 0 4.8 14.5 0.00 0.00 0.00 33 1006.6
20260508200005 16 360 0.0 16.1 0.00 0.00 0.00 35 1007.4
20260508194505 16 360 0.0 16.1 0.00 0.00 0.00 35 1007.4
20260508193006 16 360 0.0 16.1 0.00 0.00 0.00 35 1007.4
20260508191506 16 360 0.0 16.1 0.00 0.00 0.00 35 1007.4
20260508190020 17 0 4.8 16.1 0.00 0.00 0.00 35 1007.5
20260508190005 15 360 0.0 17.7 0.00 0.00 0.00 39 1008.0
20260508184505 15 360 0.0 17.7 0.00 0.00 0.00 39 1008.0
20260508183005 15 360 0.0 17.7 0.00 0.00 0.00 39 1008.0
20260508181505 15 360 0.0 17.7 0.00 0.00 0.00 39 1008.0
20260508180020 16 0 3.2 17.7 0.00 0.00 0.00 39 1008.0
20260508180005 15 360 0.0 9.7 0.00 0.00 0.00 38 1009.2
20260508174505 15 360 0.0 9.7 0.00 0.00 0.00 38 1009.2
20260508173005 15 360 0.0 9.7 0.00 0.00 0.00 38 1009.2
20260508171505 15 360 0.0 9.7 0.00 0.00 0.00 38 1009.2
20260508170022 15 0 3.2 9.7 0.00 0.00 0.00 38 1009.2
20260508170006 13 360 0.0 9.7 0.00 0.00 0.00 43 1009.8
20260508164506 13 360 0.0 9.7 0.00 0.00 0.00 43 1009.8
20260508163006 13 360 0.0 9.7 0.00 0.00 0.00 43 1009.8
20260508161505 13 360 0.0 9.7 0.00 0.00 0.00 43 1009.8
20260508160019 13 0 3.2 9.7 0.00 0.00 0.00 43 1009.7
20260508160005 11 360 0.0 6.4 0.00 0.00 0.00 52 1010.1
20260508154505 11 360 0.0 6.4 0.00 0.00 0.00 52 1010.1
20260508153005 11 360 0.0 6.4 0.00 0.00 0.00 52 1010.1
20260508151505 11 360 0.0 6.4 0.00 0.00 0.00 52 1010.1
20260508150019 11 0 1.6 6.4 0.00 0.00 0.00 52 1010.0
20260508150005 9 0.0 4.8 0.00 0.00 0.00 63 1010.5
20260508144506 9 0.0 4.8 0.00 0.00 0.00 63 1010.5
20260508143006 9 0.0 4.8 0.00 0.00 0.00 63 1010.5
20260508141505 9 0.0 4.8 0.00 0.00 0.00 63 1010.5
20260508140020 9 0.0 4.8 0.00 0.00 0.00 63 1010.3
20260508140005 6 0.0 3.2 0.00 0.00 0.00 86 1010.8
20260508134505 6 0.0 3.2 0.00 0.00 0.00 86 1010.8
20260508133005 6 0.0 3.2 0.00 0.00 0.00 86 1010.8
20260508131505 6 0.0 3.2 0.00 0.00 0.00 86 1010.8
20260508130019 6 0.0 3.2 0.00 0.00 0.00 86 1010.5
20260508130005 2 0.0 0.0 0.00 0.00 0.00 94 1010.5
20260508124505 2 0.0 0.0 0.00 0.00 0.00 94 1010.5
20260508123005 2 0.0 0.0 0.00 0.00 0.00 94 1010.5
20260508121506 2 0.0 0.0 0.00 0.00 0.00 94 1010.5
20260508120019 2 0.0 0.0 0.00 0.00 0.00 94 1010.0
20260508120006 2 0.0 0.0 0.00 0.00 0.00 93 1009.9
20260508114505 2 0.0 0.0 0.00 0.00 0.00 93 1009.9
20260508113006 2 0.0 0.0 0.00 0.00 0.00 93 1009.9
20260508111505 2 0.0 0.0 0.00 0.00 0.00 93 1009.9
20260508110019 2 0.0 0.0 0.00 0.00 0.00 93 1009.4
20260508110005 3 0.0 0.0 0.00 0.00 0.00 92 1009.8
20260508104505 3 0.0 0.0 0.00 0.00 0.00 92 1009.8
20260508103005 3 0.0 0.0 0.00 0.00 0.00 92 1009.8
20260508101506 3 0.0 0.0 0.00 0.00 0.00 92 1009.8
20260508100018 3 0.0 0.0 0.00 0.00 0.00 92 1009.3
20260508100006 5 0.0 1.6 0.00 0.00 0.00 88 1010.0
20260508094505 5 0.0 1.6 0.00 0.00 0.00 88 1010.0
20260508093005 5 0.0 1.6 0.00 0.00 0.00 88 1010.0
20260508091505 5 0.0 1.6 0.00 0.00 0.00 88 1010.0
20260508090005 7 0.0 0.0 0.00 0.00 0.00 84 1010.3
20260508084505 7 0.0 0.0 0.00 0.00 0.00 84 1010.3
20260508083005 7 0.0 0.0 0.00 0.00 0.00 84 1010.3
20260508081505 7 0.0 0.0 0.00 0.00 0.00 84 1010.3
20260508080006 7 0.0 3.2 0.00 0.00 0.00 79 1010.4
20260508074505 7 0.0 3.2 0.00 0.00 0.00 79 1010.4
20260508073005 7 0.0 3.2 0.00 0.00 0.00 79 1010.4
20260508071505 7 0.0 3.2 0.00 0.00 0.00 79 1010.4
20260508070005 7 0.0 3.2 0.00 0.00 0.00 78 1010.3
20260508064505 7 0.0 3.2 0.00 0.00 0.00 78 1010.3
20260508063005 7 0.0 3.2 0.00 0.00 0.00 78 1010.3
20260508061505 7 0.0 3.2 0.00 0.00 0.00 78 1010.3